Zurück zum Katalog

STARLINK-5700

AktivKommunikationVLEO
NORAD 55607·PAYLOAD·🇺🇸 United States

Gestartet Feb 12, 2023 von Cape Canaveral Space Force Station

Loading…

Nächste Überflüge (nächste 24 Stunden)

TLE

AktuellSource: CelesTrak SupGP

Epoche: Sep 15, 2026, 01:35 UTC

1 55607C 23020AQ  26258.06645833 -.00042969  00000+0 -15564-2 0  2580
2 55607  43.0047   4.8526 0002110 278.0284 333.9011 15.27596822    11

Verfolge STARLINK-5700 in Echtzeit mit AllMySat

Download on the App Store